ContactaLinksHome
    
DADES METEOROLÒGIQUES DE LES ÚLTIMES 24 HORES
 

Taire  Temperatura de l'aire  (ºC)
HumitatR  Humitat relativa de l'aire (%)
Pluja  Litres de pluja per metre cuadrat caiguts en 10 minuts (l/m²)
VelVent  Velocitat mitjana del vent (m/s)
DirVent  Direcció del vent  (º)
RadSolar  Intensitat de Radiació solar (w/m²)
PressAtm  Pressió atmosfèrica (mb)
  ***Dades sense verificar
DataTaireHumitatRPlujaVelVentDirVentRadSolarPressAtm
18/02/2019 2:50:008.4790,03.132801023
18/02/2019 2:40:008.5790,02.832401023
18/02/2019 2:30:008.6780,02.331001024
18/02/2019 2:20:008.7780,01.832101024
18/02/2019 2:10:008.8780,01.929801024
18/02/2019 2:00:008.9780,02.232301024
18/02/2019 1:50:009.0780,02.331201024
18/02/2019 1:40:009.0780,03.231401024
18/02/2019 1:30:008.9780,03.030701024
18/02/2019 1:20:009.1780,03.030201024
18/02/2019 1:10:009.2780,03.131501024
18/02/2019 1:00:009.3780,03.131801024
18/02/2019 0:50:009.3780,03.431001024
18/02/2019 0:40:009.4780,03.231701024
18/02/2019 0:30:009.4780,03.131701024
18/02/2019 0:20:009.4780,03.131301024
18/02/2019 0:10:009.5780,03.030901024
18/02/2019 0:00:009.4780,02.831101024
17/02/2019 23:50:009.4780,02.831301024
17/02/2019 23:40:009.4780,01.932001024
17/02/2019 23:30:009.5770,02.429601024
17/02/2019 23:20:009.8770,02.630801025
17/02/2019 23:10:009.9780,02.230201025
17/02/2019 23:00:009.9780,02.030001025
17/02/2019 22:50:009.9780,02.331101025
17/02/2019 22:40:0010.0770,02.631901025
17/02/2019 22:30:0010.0770,02.532101025
17/02/2019 22:20:0010.0780,02.132201025
17/02/2019 22:10:0010.2780,02.129601025
17/02/2019 22:00:0010.4780,01.431201025
17/02/2019 21:50:0010.5790,01.532601025
17/02/2019 21:40:0010.6790,01.532801025
17/02/2019 21:30:0010.5790,01.932801025
17/02/2019 21:20:0010.8780,02.333001025
17/02/2019 21:10:0010.9770,01.533601025
17/02/2019 21:00:0011.0770,01.632601025
17/02/2019 20:50:0011.1770,01.333201025
17/02/2019 20:40:0011.1770,01.131101025
17/02/2019 20:30:0011.2760,01.234301025
17/02/2019 20:20:0011.3760,01.034301025
17/02/2019 20:10:0011.3760,01.032701025
17/02/2019 20:00:0011.4760,00.731301025
17/02/2019 19:50:0011.3760,00.831701025
17/02/2019 19:40:0011.3760,01.033501025
17/02/2019 19:30:0011.3760,01.3101025
17/02/2019 19:20:0011.7760,01.135901025
17/02/2019 19:10:0011.7760,00.27701025
17/02/2019 19:00:0011.7760,00.313001025
17/02/2019 18:50:0011.7760,00.617301025
17/02/2019 18:40:0011.7760,00.819001025
17/02/2019 18:30:0011.7760,01.217101025
17/02/2019 18:20:0011.7760,01.318601025
17/02/2019 18:10:0011.7750,01.218201025
17/02/2019 18:00:0011.7750,01.918301024
17/02/2019 17:50:0011.7750,01.817801024
17/02/2019 17:40:0011.8750,01.620311024
17/02/2019 17:30:0011.7750,01.718031024
17/02/2019 17:20:0011.7750,02.2196121024
17/02/2019 17:10:0011.8750,02.4200241024
17/02/2019 17:00:0011.8750,02.6190421024
17/02/2019 16:50:0011.8750,02.5198521024
17/02/2019 16:40:0011.9750,02.9187571024
17/02/2019 16:30:0011.9740,03.0186901024
17/02/2019 16:20:0011.9740,03.21891161024
17/02/2019 16:10:0011.9740,03.31861831024
17/02/2019 16:00:0012.0740,03.31752121025
17/02/2019 15:50:0012.0740,03.41912531025
17/02/2019 15:40:0012.0740,03.31762941025
17/02/2019 15:30:0012.1740,03.11803161025
17/02/2019 15:20:0012.1740,03.01773401025
17/02/2019 15:10:0012.1740,03.21763601025
17/02/2019 15:00:0012.1740,03.11653791025
17/02/2019 14:50:0012.1730,03.01823981025
17/02/2019 14:40:0012.2730,02.81564221025
17/02/2019 14:30:0012.2730,02.81684421025
17/02/2019 14:20:0012.2720,02.61784651025
17/02/2019 14:10:0012.2710,02.61644851025
17/02/2019 14:00:0012.4700,02.21725031025
17/02/2019 13:50:0012.4700,01.81695201025
17/02/2019 13:40:0012.5690,01.51615361025
17/02/2019 13:30:0012.5690,01.41695481025
17/02/2019 13:20:0012.5690,01.71725591025
17/02/2019 13:10:0012.4690,01.71515741025
17/02/2019 13:00:0012.5680,01.81495871026
17/02/2019 12:50:0012.5680,01.81615901026
17/02/2019 12:40:0012.5670,01.61535991026
17/02/2019 12:30:0012.5650,01.51526061026
17/02/2019 12:20:0012.6640,01.51446111026
17/02/2019 12:10:0012.7630,01.41476161026
17/02/2019 12:00:0012.7620,01.31306161026
17/02/2019 11:50:0012.9620,01.31316161026
17/02/2019 11:40:0013.3610,01.21146101027
17/02/2019 11:30:0013.6610,00.81425961027
17/02/2019 11:20:0013.4620,00.71765891027
17/02/2019 11:10:0013.0610,00.91995871027
17/02/2019 11:00:0012.6630,01.02445771027
17/02/2019 10:50:0012.3640,01.42505691027
17/02/2019 10:40:0012.2630,01.33115551027
17/02/2019 10:30:0011.9620,01.23225421027
17/02/2019 10:20:0011.6620,01.53145271027
17/02/2019 10:10:0011.2580,01.82745131027
17/02/2019 10:00:0011.0590,01.42824941027
17/02/2019 9:50:0010.6580,01.72734751027
17/02/2019 9:40:0010.3600,01.82794511027
17/02/2019 9:30:009.8600,02.52954321027
17/02/2019 9:20:009.5590,02.63084121027
17/02/2019 9:10:009.1580,02.82973861027
17/02/2019 9:00:008.9600,02.83073621027
17/02/2019 8:50:008.4610,03.13153381027
17/02/2019 8:40:008.1610,03.43063131027
17/02/2019 8:30:007.8610,03.03112941027
17/02/2019 8:20:007.4610,03.53072761027
17/02/2019 8:10:007.2610,03.52962351027
17/02/2019 8:00:007.2620,03.23121921027
17/02/2019 7:50:007.1630,03.23101581027
17/02/2019 7:40:006.9650,03.43121251027
17/02/2019 7:30:006.7660,03.5315951027
17/02/2019 7:20:006.6660,03.6307411027
17/02/2019 7:10:006.7670,03.6306281027
17/02/2019 7:00:006.9670,03.6311131027
17/02/2019 6:50:006.8660,04.131431027
17/02/2019 6:40:006.6640,04.031311027
17/02/2019 6:30:006.4640,04.331901027
17/02/2019 6:20:006.4630,03.931601027
17/02/2019 6:10:006.4620,03.530801027
17/02/2019 6:00:006.6620,04.132001027
17/02/2019 5:50:006.8620,03.831701027
17/02/2019 5:40:006.9630,04.131401027
17/02/2019 5:30:007.0630,04.131201027
17/02/2019 5:20:007.0640,04.231501027
17/02/2019 5:10:006.9640,03.432001027
17/02/2019 5:00:006.9660,03.330401027
17/02/2019 4:50:006.9670,03.030701027
17/02/2019 4:40:006.9670,03.230501027
17/02/2019 4:30:006.7670,03.631301027
17/02/2019 4:20:006.8670,03.830101027
17/02/2019 4:10:006.7680,03.330201027
17/02/2019 4:00:006.7680,03.031701027
17/02/2019 3:50:006.6690,03.232201027
17/02/2019 3:40:006.7680,03.532301027
17/02/2019 3:30:006.8680,03.231101027
17/02/2019 3:20:006.9680,03.731101027
17/02/2019 3:10:007.0680,03.231801027
17/02/2019 3:00:007.1670,03.230701027

ÚLTIMES FOTOS WEBCAM
Imatges del Pont
ÚLTIMES DADES

18/02/2019  
3:50h Local  (2:50 GMT)
 
 Velocitat mitjana del Vent
   3,1 m/s
 Direcció del Vent
   328º
 Humitat Relativa
   79 %
 Temperatura Aparent
   6,5 ºC
 Pluja Acumulada
   0,0 l/m²
      
 Temperatura de l'aigua    N/A
 Alçada d'ona    N/A
 Direcció d'ona    N/A
 Velocitat del corrent    N/A
 Direcció del corrent    N/A